Weather History for Paynesville, MN

Change the Weather History Date:

Friday, June 8, 2012

  Actual Average (KLJF) Record (KLJF)
Temperature  
Mean Temperature 78 °F -  
Max Temperature 88 °F 78 °F 94 °F (1976)
Min Temperature 67 °F 54 °F 8 °F (1999)
Cooling Degree Days 12    
Growing Degree Days 28 (Base 50)    
Moisture  
Dew Point 57 °F    
Average Humidity 53    
Maximum Humidity 72    
Minimum Humidity 28    
Precipitation  
Precipitation 0.00 in - - ()
Sea Level Pressure  
Sea Level Pressure 29.86 in    
Wind  
Wind Speed 7 mph (SSW)    
Max Wind Speed 14 mph    
Max Gust Speed 21 mph    
Visibility 10 miles    
Events      
Averages and records for this station are not official NWS values.
T = Trace of Precipitation, MM = Missing Value Source: NWS Daily Summary

Daily Weather History Graph

Daily Weather History Graph

Search for Another Location

Airport:

Trip Planner

Search our weather history database for the weather conditions in past years. The results will help you decide how hot, cold, wet, or windy it might be!

Date:

Astronomy

Jun. 08, 2012 Rise Set
Actual Time 5:31 AM CDT 9:05 PM CDT
Civil Twilight 4:53 AM CDT 9:43 PM CDT
Nautical Twilight 4:04 AM CDT 10:32 PM CDT
Astronomical Twilight 2:58 AM CDT 11:38 PM CDT
Moon No Moon Rise 10:21 AM CDT (6/8)
Length of Visible Light 16h 49m
Length of Day
15h 34m
Waning Gibbous, 77% of the Moon is Illuminated
Jun 8
Waning Gibbous
Jun 11
Last Quarter
Jun 19
New
Jun 26
First Quarter
Jul 3
Full

Hourly Weather History & Observations

Time (CDT) Temp. Heat Index Dew Point Humidity Pressure Visibility Wind Dir Wind Speed Gust Speed Precip Events Conditions
12:14 AM 70.9 °F - 60.1 °F 69% 29.96 in 10.0 mi South 5.8 mph - N/A   Clear
12:33 AM 70.7 °F - 60.1 °F 69% 29.95 in 10.0 mi South 5.8 mph - N/A   Clear
12:54 AM 70.2 °F - 60.1 °F 70% 29.95 in 10.0 mi South 6.9 mph - N/A   Clear
1:13 AM 70.3 °F - 60.3 °F 70% 29.94 in 10.0 mi South 6.9 mph - N/A   Clear
1:34 AM 70.2 °F - 60.3 °F 71% 29.94 in 10.0 mi South 5.8 mph - N/A   Clear
1:53 AM 70.2 °F - 60.3 °F 71% 29.94 in 10.0 mi South 5.8 mph - N/A   Clear
2:13 AM 69.8 °F - 60.3 °F 72% 29.94 in 10.0 mi South 5.8 mph - N/A   Clear
2:34 AM 69.8 °F - 59.9 °F 71% 29.95 in 10.0 mi South 5.8 mph - N/A   Clear
2:54 AM 70.0 °F - 59.5 °F 69% 29.94 in 10.0 mi South 8.1 mph - N/A   Clear
3:14 AM 70.2 °F - 59.0 °F 68% 29.94 in 10.0 mi SSW 6.9 mph - N/A   Clear
3:33 AM 70.3 °F - 58.5 °F 66% 29.93 in 10.0 mi SSW 8.1 mph - N/A   Clear
3:53 AM 70.0 °F - 58.3 °F 66% 29.93 in 10.0 mi SSW 9.2 mph - N/A   Clear
4:14 AM 69.8 °F - 58.1 °F 66% 29.91 in 10.0 mi South 6.9 mph - N/A   Clear
4:34 AM 69.3 °F - 58.1 °F 68% 29.91 in 10.0 mi South 8.1 mph - N/A   Clear
4:54 AM 68.9 °F - 57.7 °F 68% 29.91 in 10.0 mi South 6.9 mph - N/A   Clear
5:13 AM 68.7 °F - 57.6 °F 67% 29.90 in 10.0 mi South 6.9 mph - N/A   Clear
5:34 AM 68.4 °F - 57.6 °F 68% 29.89 in 10.0 mi SSE 9.2 mph - N/A   Clear
5:54 AM 68.0 °F - 57.7 °F 70% 29.91 in 10.0 mi South 6.9 mph - N/A   Scattered Clouds
6:13 AM 67.8 °F - 58.1 °F 71% 29.91 in 10.0 mi SSW 8.1 mph - N/A   Mostly Cloudy
6:34 AM 68.4 °F - 58.1 °F 70% 29.91 in 10.0 mi South 9.2 mph - N/A   Scattered Clouds
6:53 AM 68.4 °F - 58.1 °F 70% 29.92 in 10.0 mi SSW 8.1 mph - N/A   Scattered Clouds
7:14 AM 69.3 °F - 58.3 °F 68% 29.92 in 10.0 mi SSW 6.9 mph - N/A   Scattered Clouds
7:34 AM 69.1 °F - 59.4 °F 71% 29.93 in 10.0 mi West 6.9 mph - N/A   Scattered Clouds
7:53 AM 69.3 °F - 59.2 °F 70% 29.93 in 10.0 mi WSW 5.8 mph - N/A   Clear
8:14 AM 70.0 °F - 58.3 °F 66% 29.93 in 10.0 mi SW 6.9 mph - N/A   Clear
8:33 AM 71.6 °F - 58.1 °F 62% 29.93 in 10.0 mi WSW 3.5 mph - N/A   Clear
8:54 AM 72.9 °F - 57.4 °F 58% 29.93 in 10.0 mi West 8.1 mph - N/A   Clear
9:13 AM 73.8 °F - 57.0 °F 56% 29.93 in 10.0 mi West 4.6 mph - N/A   Clear
9:34 AM 74.7 °F - 56.8 °F 54% 29.93 in 10.0 mi West 8.1 mph - N/A   Clear
9:53 AM 75.0 °F - 56.7 °F 53% 29.92 in 10.0 mi West 4.6 mph - N/A   Scattered Clouds
10:13 AM 74.7 °F - 57.7 °F 55% 29.92 in 10.0 mi West 5.8 mph - N/A   Mostly Cloudy
10:34 AM 75.0 °F - 57.9 °F 55% 29.92 in 10.0 mi WSW 3.5 mph - N/A   Mostly Cloudy
10:53 AM 75.4 °F - 57.4 °F 53% 29.91 in 10.0 mi Calm Calm - N/A   Scattered Clouds
11:13 AM 75.4 °F - 57.7 °F 54% 29.91 in 10.0 mi SSW 5.8 mph - N/A   Scattered Clouds
11:34 AM 76.5 °F - 55.8 °F 49% 29.91 in 10.0 mi South 5.8 mph - N/A   Scattered Clouds
11:53 AM 77.0 °F - 56.8 °F 50% 29.90 in 10.0 mi WSW 4.6 mph - N/A   Clear
12:13 PM 77.4 °F - 57.4 °F 50% 29.90 in 10.0 mi South 6.9 mph - N/A   Scattered Clouds
12:33 PM 77.5 °F - 57.0 °F 49% 29.89 in 10.0 mi SSW 8.1 mph - N/A   Mostly Cloudy
12:53 PM 77.4 °F - 57.2 °F 50% 29.89 in 10.0 mi SSW 6.9 mph - N/A   Mostly Cloudy
1:14 PM 78.1 °F - 57.0 °F 48% 29.88 in 10.0 mi SSW 9.2 mph - N/A   Mostly Cloudy
1:34 PM 79.0 °F - 56.7 °F 46% 29.88 in 10.0 mi SSW 6.9 mph - N/A   Mostly Cloudy
1:54 PM 79.3 °F - 56.8 °F 46% 29.87 in 10.0 mi South 8.1 mph - N/A   Mostly Cloudy
2:13 PM 79.9 °F - 56.5 °F 45% 29.86 in 10.0 mi SSW 8.1 mph - N/A   Scattered Clouds
2:34 PM 80.6 °F 80.8 °F 57.2 °F 45% 29.85 in 10.0 mi SSW 6.9 mph - N/A   Scattered Clouds
2:54 PM 81.5 °F 81.5 °F 57.6 °F 44% 29.84 in 10.0 mi South 5.8 mph - N/A   Scattered Clouds
3:14 PM 82.9 °F 82.7 °F 58.5 °F 43% 29.83 in 10.0 mi SSW 6.9 mph - N/A   Mostly Cloudy
3:33 PM 82.8 °F 82.8 °F 59.5 °F 45% 29.82 in 7.0 mi SSE 4.6 mph - N/A   Mostly Cloudy
3:53 PM 84.6 °F 84.2 °F 59.2 °F 42% 29.81 in 10.0 mi SW 5.8 mph - N/A   Scattered Clouds
4:13 PM 84.2 °F 84.0 °F 59.2 °F 43% 29.80 in 10.0 mi SSW 4.6 mph - N/A   Mostly Cloudy
4:33 PM 85.3 °F 84.8 °F 59.0 °F 41% 29.79 in 10.0 mi South 4.6 mph - N/A   Scattered Clouds
4:54 PM 86.7 °F 86.1 °F 58.8 °F 39% 29.78 in 10.0 mi South 4.6 mph - N/A   Mostly Cloudy
5:33 PM 88.2 °F 86.3 °F 54.7 °F 32% 29.77 in 10.0 mi SSW 12.7 mph 17.3 mph N/A   Clear
5:54 PM 88.3 °F 86.1 °F 53.6 °F 30% 29.76 in 10.0 mi SSW 13.8 mph 18.4 mph N/A   Clear
6:13 PM 88.0 °F - 51.4 °F 28% 29.76 in 10.0 mi SW 11.5 mph 20.7 mph N/A   Clear
6:33 PM 87.8 °F - 51.8 °F 29% 29.76 in 10.0 mi SW 9.2 mph - N/A   Clear
6:54 PM 87.1 °F - 52.5 °F 30% 29.75 in 10.0 mi SSW 10.4 mph 17.3 mph N/A   Clear
7:13 PM 86.5 °F - 52.7 °F 31% 29.75 in 10.0 mi SSW 8.1 mph - N/A   Clear
7:33 PM 85.8 °F 84.0 °F 53.4 °F 33% 29.74 in 10.0 mi SSW 5.8 mph - N/A   Clear
7:54 PM 84.7 °F 83.1 °F 53.8 °F 34% 29.74 in 10.0 mi SSW 6.9 mph - N/A   Clear
8:14 PM 83.8 °F - 52.5 °F 34% 29.74 in 10.0 mi SSW 6.9 mph - N/A   Clear
8:33 PM 82.4 °F - 52.2 °F 35% 29.73 in 10.0 mi SSW 4.6 mph - N/A   Clear
8:54 PM 80.6 °F - 52.3 °F 37% 29.73 in 10.0 mi South 5.8 mph - N/A   Clear
9:13 PM 79.7 °F - 52.7 °F 39% 29.74 in 10.0 mi SSW 5.8 mph - N/A   Clear
9:33 PM 78.8 °F - 52.9 °F 40% 29.74 in 10.0 mi South 4.6 mph - N/A   Clear
9:54 PM 77.9 °F - 54.5 °F 44% 29.74 in 10.0 mi South 5.8 mph - N/A   Clear
10:13 PM 77.9 °F - 54.5 °F 44% 29.74 in 10.0 mi SSW 5.8 mph - N/A   Clear
10:34 PM 77.4 °F - 54.5 °F 45% 29.74 in 10.0 mi SSW 6.9 mph - N/A   Clear
10:53 PM 77.4 °F - 54.1 °F 44% 29.74 in 10.0 mi SSW 8.1 mph - N/A   Clear
11:14 PM 77.0 °F - 54.1 °F 45% 29.74 in 10.0 mi SSW 8.1 mph - N/A   Clear
11:33 PM 76.6 °F - 54.3 °F 46% 29.75 in 10.0 mi SSW 8.1 mph - N/A   Clear
11:53 PM 76.3 °F - 54.7 °F 47% 29.74 in 10.0 mi SSW 9.2 mph - N/A   Clear